Location: LDNL
(36.4545°S, 141.6685°E)
Time: 20:32:05
(UTC+11:00)

SR - All Passes

Search period start: 28 January 2022 00:00
Search period end: 07 February 2022 00:00
Orbit: 582 x 872 km, 66.7° (Epoch: 27 January)

Date Brightness Start Highest point End Pass type
(mag) Time Alt. Az. Time Alt. Az. Time Alt. Az.
28 Jan - 01:24:39 10° SW 01:26:00 11° SW 01:27:20 10° SSW visible
28 Jan - 08:21:16 10° SSW 08:26:37 61° ESE 08:31:26 10° NE daylight
28 Jan - 10:05:22 10° WSW 10:07:55 14° WNW 10:10:22 10° NW daylight
28 Jan - 22:46:56 10° NNW 22:52:43 74° ENE 22:58:39 10° SSE visible
29 Jan - 00:31:18 10° W 00:35:25 19° SW 00:39:34 10° S visible
29 Jan - 07:31:43 10° S 07:36:28 30° SE 07:40:51 10° ENE daylight
29 Jan - 09:13:53 10° SW 09:18:27 31° WNW 09:22:41 10° N daylight
29 Jan - 21:57:43 10° N 22:02:59 37° ENE 22:08:22 10° SE visible
29 Jan - 23:39:48 10° WNW 23:45:05 34° SW 23:50:26 10° S visible
30 Jan - 06:42:43 10° S 06:46:05 16° SE 06:49:18 10° E daylight
30 Jan - 08:23:30 10° SSW 08:28:48 69° WNW 08:33:35 10° NNE daylight
30 Jan - 21:09:36 10° NE 21:13:25 18° ENE 21:17:18 10° ESE visible
30 Jan - 22:49:10 10° NW 22:54:57 63° WSW 23:00:52 10° SSE visible
31 Jan - 00:36:19 10° WSW 00:38:13 11° SW 00:40:07 10° SSW visible
31 Jan - 07:33:36 10° SSW 07:38:53 56° ESE 07:43:40 10° NE daylight
31 Jan - 09:17:24 10° WSW 09:20:16 15° WNW 09:23:00 10° NW daylight
31 Jan - 21:59:16 10° NNW 22:05:02 68° ENE 22:10:57 10° SSE visible
31 Jan - 23:43:23 10° W 23:47:40 20° SW 23:51:59 10° S visible
01 Feb - 06:44:06 10° S 06:48:43 28° SE 06:52:58 10° ENE daylight
01 Feb - 08:26:07 10° SW 08:30:47 33° WNW 08:35:04 10° N daylight
01 Feb - 21:10:09 10° N 21:15:19 34° ENE 21:20:36 10° SE visible
01 Feb - 22:51:59 10° WNW 22:57:21 36° SW 23:02:48 10° S visible
02 Feb - 05:55:12 10° S 05:58:18 15° SE 06:01:16 10° E visible
02 Feb - 07:35:47 10° SSW 07:41:05 75° WNW 07:45:52 10° NNE daylight
02 Feb - 20:22:13 10° NE 20:25:46 17° ENE 20:29:23 10° ESE daylight
02 Feb - 22:01:26 10° NW 22:07:15 68° WSW 22:13:11 10° SSE visible
02 Feb - 23:48:06 10° WSW 23:50:26 12° SW 23:52:45 10° SSW visible
03 Feb - 06:45:57 10° SSW 06:51:09 51° ESE 06:55:52 10° NE daylight
03 Feb - 08:29:28 10° WSW 08:32:36 16° WNW 08:35:34 10° NW daylight
03 Feb - 21:11:36 10° NNW 21:17:21 63° ENE 21:23:13 10° SE visible
03 Feb - 22:55:28 10° W 22:59:55 22° SW 23:04:23 10° S visible
04 Feb - 05:56:30 10° S 06:00:57 26° SE 06:05:05 10° ENE visible
04 Feb - 07:38:21 10° SW 07:43:06 36° WNW 07:47:26 10° N daylight
04 Feb - 20:22:35 10° NNE 20:27:39 32° ENE 20:32:48 10° SE daylight
04 Feb - 22:04:10 10° WNW 22:09:37 38° SW 22:15:08 10° SSE visible
05 Feb - 05:07:43 10° SSE 05:10:31 14° SE 05:13:12 10° ESE visible
05 Feb - 06:48:05 10° SSW 06:53:22 81° WNW 06:58:09 10° NNE daylight
05 Feb - 19:34:51 10° NE 19:38:07 15° ENE 19:41:26 10° ESE daylight
05 Feb - 21:13:42 10° NNW 21:19:32 73° WSW 21:25:29 10° SSE visible
05 Feb - 22:59:58 10° WSW 23:02:38 13° SW 23:05:18 10° SSW visible
06 Feb - 05:58:17 10° SSW 06:03:24 47° ESE 06:08:04 10° NE visible
06 Feb - 07:41:34 10° WSW 07:44:55 18° WNW 07:48:06 10° NW daylight
06 Feb - 20:23:57 10° N 20:29:40 59° ENE 20:35:29 10° SE daylight
06 Feb - 22:07:33 10° WNW 22:12:10 23° SW 22:16:46 10° S visible
